Everett, WA

8:04 AM PST on December 13, 2019 (GMT -0800)
Snohomish County

Weather History for KPAE - October, 2019

Change the Weather History Date:

Friday, October 4, 2019

  Actual Average Record
Temperature  
Mean Temperature 54 °F -  
Max Temperature 59 °F 63 °F 77 °F (1970)
Min Temperature 48 °F 44 °F 33 °F (1957)
Degree Days  
Heating Degree Days 12    
Growing Degree Days 4 (Base 50)    
Moisture  
Dew Point 46 °F    
Average Humidity 81    
Maximum Humidity 93    
Minimum Humidity 62    
Precipitation  
Precipitation 0.09 in - - ()
Sea Level Pressure  
Sea Level Pressure 30.14 in    
Wind  
Wind Speed 11 mph (SSE)    
Max Wind Speed 18 mph    
Max Gust Speed 26 mph    
Visibility 10 miles    
Events Rain    
Averages and records for this station are not official NWS values.
T = Trace of Precipitation, MM = Missing Value Source: NWS Daily Summary

Daily Weather History Graph

Daily Weather History Graph

Search for Another Location

Airport or City:

Astronomy

Oct. 04, 2019 Rise Set
Actual Time 7:12 AM PDT 6:42 PM PDT
Civil Twilight 6:41 AM PDT 7:13 PM PDT
Nautical Twilight 6:05 AM PDT 7:49 PM PDT
Astronomical Twilight 5:29 AM PDT 8:25 PM PDT
Moon 2:14 PM PDT (10/4) 10:51 PM PDT (10/4)
Length of Visible Light 12h 31m
Length of Day
11h 30m
Waxing Crescent, 41% of the Moon is Illuminated
Oct 4
Waxing Crescent
Oct 5
First Quarter
Oct 13
Full
Oct 21
Last Quarter
Oct 27
New

Hourly Weather History & Observations

Time (PDT) Temp. Dew Point Humidity Pressure Visibility Wind Dir Wind Speed Gust Speed Precip Events Conditions
12:53 AM 50.0 °F 45.0 °F 83% 30.02 in 10.0 mi SSE 10.4 mph - N/A   Scattered Clouds
1:53 AM 48.9 °F 45.0 °F 86% 30.02 in 10.0 mi SSE 13.8 mph - N/A   Partly Cloudy
2:53 AM 48.9 °F 44.1 °F 83% 30.03 in 10.0 mi SSE 10.4 mph - N/A   Clear
3:53 AM 48.9 °F 44.1 °F 83% 30.04 in 10.0 mi SSE 9.2 mph - N/A   Overcast
4:53 AM 48.9 °F 45.0 °F 86% 30.05 in 6.0 mi SSE 11.5 mph - 0.04 in Rain Light Rain
5:53 AM 48.0 °F 46.0 °F 93% 30.05 in 10.0 mi SSE 11.5 mph - 0.01 in Rain Light Rain
6:53 AM 48.0 °F 45.0 °F 89% 30.06 in 10.0 mi SSE 13.8 mph - 0.01 in   Overcast
7:53 AM 48.9 °F 45.0 °F 86% 30.06 in 10.0 mi SSE 12.7 mph - N/A   Overcast
8:49 AM 50.0 °F 46.4 °F 87% 30.08 in 10.0 mi SSE 12.7 mph - 0.00 in   Overcast
8:53 AM 50.0 °F 46.0 °F 86% 30.08 in 10.0 mi SSE 11.5 mph - 0.00 in   Overcast
9:53 AM 52.0 °F 46.0 °F 80% 30.10 in 10.0 mi SSE 16.1 mph 24.2 mph N/A   Overcast
10:53 AM 54.0 °F 46.9 °F 77% 30.11 in 10.0 mi South 10.4 mph 20.7 mph N/A   Overcast
11:53 AM 55.0 °F 45.0 °F 69% 30.12 in 10.0 mi South 18.4 mph - N/A   Overcast
12:53 PM 57.0 °F 46.0 °F 67% 30.13 in 10.0 mi South 17.3 mph - N/A   Overcast
1:53 PM 57.9 °F 45.0 °F 62% 30.14 in 10.0 mi SSW 16.1 mph 26.5 mph N/A   Overcast
2:00 PM 59.0 °F 46.0 °F 62% 30.14 in 10.0 mi SSW 18.4 mph 25.3 mph N/A   Overcast
2:53 PM 57.9 °F 45.0 °F 62% 30.15 in 10.0 mi South 16.1 mph - N/A   Overcast
3:53 PM 57.9 °F 45.0 °F 62% 30.17 in 10.0 mi South 15.0 mph - N/A   Overcast
4:53 PM 57.0 °F 46.9 °F 69% 30.18 in 10.0 mi South 16.1 mph - N/A   Overcast
5:53 PM 53.1 °F 48.0 °F 83% 30.20 in 10.0 mi WNW 8.1 mph - 0.00 in Rain Light Rain
6:35 PM 51.1 °F 48.0 °F 89% 30.21 in 10.0 mi North 4.6 mph - 0.00 in   Overcast
6:53 PM 51.1 °F 48.0 °F 89% 30.22 in 10.0 mi Calm Calm - 0.00 in   Overcast
7:53 PM 51.1 °F 48.0 °F 89% 30.24 in 10.0 mi Calm Calm - 0.02 in Rain Light Rain
8:53 PM 52.0 °F 46.9 °F 83% 30.26 in 10.0 mi ENE 3.5 mph - 0.00 in   Overcast
9:53 PM 51.1 °F 48.9 °F 92% 30.28 in 10.0 mi ESE 4.6 mph - 0.01 in   Overcast
10:53 PM 51.1 °F 48.9 °F 92% 30.29 in 10.0 mi ESE 4.6 mph - N/A   Overcast
11:29 PM 51.1 °F 48.9 °F 92% 30.29 in 10.0 mi Variable 3.5 mph - N/A   Overcast
11:53 PM 51.1 °F 48.0 °F 89% 30.29 in 10.0 mi ESE 5.8 mph - N/A   Overcast